Flight Information

DEPARTURE
SANTA MONICA, CA
Elevation:
169
Runways:
H1 - 40x40 - ASPH-G
3/21 - 3500x150 - ASPH-G
Active PE Departure:
21
Current PE ATIS:
R
Altimeter:
30.17
Remarks:
ATIS:
119.15 310-450-4620
Ground:
121.9
Tower:
120.1
DESTINATION
,
Elevation:
TPA:
1000 (est.)


6795.3 NM73° True-14° Var59° HDG

Flight Plan:
(click to file on line)

1. Type
2. Aircraft Identification
3. Aircraft Type / Special Equipment
4. True Airspeed
kts
5. Departure Airport
(ICAO code)
6. Arriving Airport
(ICAO code)
7. Cruising Altitude
ft
8. Alternate Airport
(ICAO code)
9. Route of Flight
10. Remarks


00:00:00 Departure ATIS: Destination ATIS:

Clearance Limit:
Route:
Altitude: Expect in minutes
Frequency:
Transponder: (7500 Hijack / 7600 Lost Comms / 7700 Emergency)


KSMO 282251Z 10005KT 10SM CLR 24/M12 A3017 RMK AO2 SLP216 T02391117
Time: 2022-01-28T22:51:00Z
1643411283
Winds: 100 @ 5 kts
Visibility: 10.0 sm
Clouds (AGL): CLR
Temperature: 23.9 C
Dew Point: -11.7 C
Pressure: 30.171259 in Hgbr


Notes:

Data extracted from FAA Digital Chart Supplement. Effective: 0901Z Thursday, DEC 2, 2021 to 0901Z Thursday, JAN 27, 2022
Current ATIS data is provided courtisy of PilotEdge.